CZ-3C DEB, 42467

Orbit data source: Space-Track

CZ-3C DEB, 42467 is space debris in HEO originally from a launch on Sun, 31 Oct 2010 UTC launched from the Xichang Space Center, China (XSC). Debris objects in space refer to the collection of defunct objects orbiting the Earth. Examples of debris include non-operational satellites, rocket bodies, and fragments generated from explosions, collisions, or faulty payload assembly.

Loading next visibility...
Identifier
42467, 2010-057BG
Orbit
HEO
Country
Flag of CNCN / PRC
Related business
Manufacturer
CALT
Mission
Spacecraft
Bus & Motor
Unknown
Mass
Unknown
Launch date (UTC)
2010-10-31 (16 years ago)
Launch vehicle
Unknown
Launch site
Xichang Space Center, China (XSC)
Object type
Payload
Rocket body
Debris
Shape & HBR
Unknown shape, 0.2 m
Radar Cross Section
Medium (>0.1 m² and <1 m²)

Expand to show TLE details & history
Last TLE update: 1 day ago

TLE from 1 day ago
0 CZ-3C DEB
1 42467U 10057BG  26265.37885259  .00015259  00000-0  60332-2 0  9992
2 42467  20.1636 284.7275 4474075 314.8751  16.4620  6.40904917247370
Epoch: 2026-09-22T09:05Z
TLE epoch observation values (Epoch: 2026-09-22T09:05:32.863Z)
Latitude
-0.00002°
Longitude
147.09534°
Altitude
1,064.818 km
Speed
8.634 km/s
True Right ascension
18h 58m 54s
True Declination
0° 00' 00"
Sunlit
Object was in daylight at epoch
Visualization orbit readout
Latitude
Unknown
Longitude
Unknown
Altitude
Unknown
Speed
Unknown
Apparent Right ascension
Unknown
Apparent Declination
Unknown
Sunlit
N/A
Visualization observer readout
Local Sidereal Time
04:06:20
Azimuth
Unknown
Elevation
Unknown
Doppler factor
Unknown
Orbital elements
Apogee altitude
11,347.852 km
Perigee altitude
389.307 km
Semi-major axis
12,246.716 km
Eccentricity
0.44741
Inclination
20.1636°
RAAN
284.7275°
Arg. of periapsis
314.8751°
True anomaly
45.15773°
Mean anomaly
16.462°
Eccentric anomaly
28.81899°
Mean motion
1.60145 °/min
Orbital period
224.8 mins
BSTAR
0.0060332
Loading maneuver chart data...
Computing Atmospheric mass density...
Loading historical data...
Loading historical data...
Loading historical data...
Loading historical data...
Loading historical data...
Loading historical data...
Loading historical data...

Documentation

Showing up to 5 results
|